Location: Alma
(38.7220°N, 88.9090°W)
Time: 19:54:45
(UTC-06:00)

Vanguard 2 Rocket - Pass Details

Date: 16 November 2019
Orbit: 554 x 3326 km, 32.9° (Epoch: 09 December)

Event Time Altitude Azimuth Distance (km) Brightness Sun altitude
Rises 03:40:47 0° 259° (W) 3,154 - -34.7°
Reaches altitude 10° 03:42:48 10° 255° (WSW) 2,416 - -34.3°
Maximum altitude 03:48:20 56° 177° (S) 1,328 - -33.2°
Exits shadow 03:48:36 55° 169° (S) 1,352 7.6 -33.2°
Drops below altitude 10° 03:57:54 10° 104° (ESE) 4,099 11.1 -31.3°
Sets 04:02:21 0° 101° (E) 5,570 12.1 -30.5°
